Lapse_Rate
5.6 5.9 5.3 6.1 5.8 5.7 6.1 5.9 6.3 6.4 6.9 7.1 6.9 6.8 7.2 7.1 7.1 7.1 7.2 7.0 7.0 7.0 7.6 7.8 7.6 7.7 7.6 7.2 6.9 7.0 7.0 7.1 7.0 7.1 7.0 6.9 7.1 6.8 6.8 6.9 7.0 7.0 7.0 6.8
5.2 5.3 5.7 5.9 5.9 5.6 5.6 5.8 6.0 6.1 6.5 6.6 6.9 6.7 7.0 7.4 7.1 6.9 7.1 6.9 6.9 6.9 7.4 7.7 7.8 7.5 7.3 7.3 7.1 7.0 7.1 7.0 6.9 6.9 7.1 7.0 7.1 7.0 6.7 6.6 6.8 6.9 6.8 6.7
5.3 6.0 6.0 5.7 5.6 5.5 5.4 5.4 5.9 5.8 6.4 6.7 6.5 6.5 6.9 7.1 7.3 7.1 7.0 7.3 7.1 6.9 7.1 7.7 7.5 7.4 7.4 7.4 7.2 7.3 7.4 7.3 6.9 6.8 7.0 7.2 7.2 7.1 6.9 6.8 6.7 6.6 6.3 6.0
5.6 5.7 5.7 5.8 5.8 5.9 5.5 6.0 5.7 5.7 5.9 5.8 6.9 6.0 6.7 7.2 7.3 7.0 7.0 7.3 7.2 6.9 7.1 7.4 7.5 7.5 7.4 7.4 7.4 7.3 7.4 7.3 7.2 6.8 6.9 7.0 7.1 7.1 6.8 6.7 6.7 6.6 6.4 5.9
4.9 5.3 5.6 5.3 5.1 6.2 5.9 6.2 6.0 6.0 6.2 6.2 6.5 6.2 5.7 6.6 6.9 7.2 6.9 7.0 7.1 6.9 7.4 7.4 7.6 7.8 7.9 7.6 7.4 7.3 7.5 7.5 7.1 7.1 7.1 7.0 6.9 6.8 6.7 6.8 6.8 6.6 6.4 6.2
5.1 5.4 5.7 5.7 5.7 5.9 6.2 6.2 6.3 6.3 6.6 6.1 5.9 6.3 5.5 6.0 7.0 7.3 7.3 6.8 6.9 7.3 7.7 7.7 7.7 8.0 8.2 8.3 7.8 7.4 7.4 7.8 7.3 7.2 7.1 7.1 7.1 6.9 6.8 6.9 7.0 6.6 6.5 6.2
5.1 5.2 5.4 5.5 5.5 6.0 6.1 6.0 6.2 6.5 5.8 5.4 5.9 6.1 5.4 6.1 6.7 7.3 7.6 7.2 7.1 7.5 8.0 7.9 7.6 7.8 8.0 8.2 8.2 7.6 7.5 7.9 7.4 7.3 7.2 7.1 7.0 6.9 7.2 7.2 6.9 6.7 6.6 6.5
5.5 5.5 5.4 5.8 5.4 5.9 6.0 5.9 6.2 5.6 5.8 5.9 6.2 6.3 5.6 6.0 6.6 6.9 7.3 7.7 7.4 7.6 7.8 7.9 7.8 7.8 8.0 8.2 8.1 8.0 7.6 7.5 7.3 7.4 7.3 7.2 7.1 7.3 7.6 7.4 7.0 6.8 6.7 6.5
6.7 5.8 6.1 6.2 6.1 6.2 6.1 6.8 6.1 6.6 6.9 6.3 6.9 6.5 6.3 6.5 6.6 7.1 7.2 7.4 7.7 7.7 7.7 7.6 7.7 7.8 8.2 8.2 8.1 8.1 7.8 7.6 7.5 7.3 7.3 7.3 7.4 7.6 7.7 7.5 7.2 7.0 6.8 6.5
7.1 6.5 6.5 6.6 7.0 6.9 6.5 6.6 6.8 7.2 6.6 6.8 7.1 6.5 6.6 6.5 6.4 6.9 7.4 7.6 7.7 7.7 8.3 8.3 7.8 8.0 8.0 8.3 8.0 8.0 7.6 7.5 7.3 7.4 7.4 7.4 7.3 7.5 7.6 7.5 7.4 7.0 6.8 6.6
6.8 7.0 6.8 7.0 7.3 7.0 6.8 6.8 7.2 7.4 7.6 7.0 6.8 6.6 6.7 6.9 6.9 7.5 7.9 7.7 7.4 7.8 8.0 8.2 8.0 8.1 8.3 8.4 8.0 8.0 7.7 7.5 7.4 7.5 7.4 7.3 7.4 7.4 7.5 7.5 7.4 7.2 6.9 6.5
6.9 6.5 6.7 7.0 7.2 7.1 7.6 7.6 7.4 7.4 7.4 7.6 7.3 6.7 7.2 7.2 7.4 7.8 8.1 7.9 7.8 8.0 8.3 8.3 8.4 8.5 8.5 8.3 8.1 8.0 7.8 7.7 7.6 7.6 7.4 7.4 7.5 7.4 7.3 7.4 7.3 7.2 6.9 6.6
6.9 7.0 7.0 7.0 7.3 7.6 7.3 7.3 7.3 7.9 8.0 8.0 7.5 6.7 6.7 7.0 7.3 7.7 7.6 8.3 8.8 8.3 8.6 8.7 8.8 8.6 8.6 8.4 8.4 8.4 8.2 7.9 7.8 7.8 7.6 7.5 7.4 7.4 7.3 7.4 7.1 7.0 6.9 6.7
6.7 6.8 6.5 6.4 7.1 7.2 7.6 7.1 7.2 7.3 7.5 7.5 7.5 7.0 6.5 6.7 7.0 7.4 7.7 7.9 7.9 7.9 8.3 8.4 8.8 8.5 8.5 8.3 8.6 8.5 8.4 8.4 8.2 8.0 8.0 7.6 7.5 7.4 7.2 7.3 7.1 7.0 6.8 6.6
6.8 6.6 7.0 6.6 6.2 6.8 6.6 7.2 7.2 7.1 7.2 6.8 7.0 7.5 6.5 6.5 6.8 6.8 7.0 7.5 8.3 8.0 8.1 8.0 8.1 8.0 8.1 8.3 8.6 8.7 8.8 8.8 8.3 8.2 8.1 7.6 7.6 7.6 7.2 7.1 7.0 7.0 7.0 6.8
7.4 6.8 6.5 6.7 6.2 6.7 6.5 6.7 6.6 6.1 6.6 6.6 7.0 6.8 6.8 6.7 6.5 6.5 6.6 7.2 7.9 8.0 7.9 8.0 8.3 8.6 8.6 8.7 8.7 8.7 8.7 8.6 8.5 8.2 8.1 7.7 7.5 7.4 7.2 7.1 6.9 6.9 7.0 7.0
7.3 7.0 6.9 6.9 6.9 6.6 6.3 6.3 6.5 6.5 6.3 6.6 6.3 6.9 6.7 6.5 6.5 6.5 6.8 7.2 7.4 7.6 7.7 7.6 8.0 8.2 8.4 8.5 8.7 8.7 8.8 8.8 8.4 8.3 8.1 7.7 7.5 7.3 7.1 6.9 6.7 6.8 6.9 7.1
6.8 7.1 6.8 6.9 7.0 7.1 6.9 7.2 7.3 6.8 6.6 7.3 7.3 6.9 6.6 6.4 6.3 6.4 6.8 6.8 7.0 7.3 7.7 7.7 7.7 7.9 8.1 8.5 8.8 8.9 8.9 8.7 8.5 8.2 7.9 7.7 7.5 7.3 7.1 7.0 7.0 7.0 7.0 6.9
6.9 7.0 6.7 7.1 7.2 7.2 6.7 6.2 6.7 7.0 6.6 7.0 7.5 7.9 7.2 6.6 6.3 6.1 6.4 6.9 6.8 7.1 7.3 7.6 7.9 8.0 8.1 8.3 8.6 8.4 8.4 8.3 8.1 8.0 8.0 7.8 7.9 7.6 7.3 7.1 7.1 7.1 6.9 6.9
7.7 7.3 6.9 6.8 6.9 6.9 6.1 6.7 6.7 7.1 6.3 6.8 6.8 7.7 7.7 7.1 6.6 6.3 6.7 6.9 7.0 7.0 7.2 7.5 7.6 8.0 8.4 8.5 8.3 8.2 8.1 7.9 7.6 7.8 8.0 8.1 7.8 7.4 7.4 7.4 7.1 6.9 6.8 6.7
7.5 6.9 6.7 6.7 7.0 7.0 6.7 6.8 7.0 7.1 6.8 7.5 7.9 7.5 7.5 7.2 6.9 6.3 6.6 6.4 6.7 7.0 7.0 7.3 7.5 7.8 7.9 8.1 8.0 7.8 8.2 8.0 8.0 7.9 8.0 8.0 7.8 7.5 7.4 7.4 7.0 6.4 6.4 6.4
7.2 7.2 6.9 6.6 6.7 6.7 7.1 7.4 7.2 7.3 7.4 7.5 7.7 7.4 7.3 7.6 7.6 7.1 6.8 6.2 6.1 6.4 6.6 7.1 7.3 7.3 7.8 8.2 8.2 8.3 8.3 8.1 8.1 8.4 8.6 8.1 7.6 7.4 7.3 7.1 6.8 6.6 6.4 6.2
7.1 7.3 7.5 7.4 7.7 8.2 7.8 7.6 7.8 7.8 7.5 7.4 7.4 7.4 7.0 7.1 7.1 7.2 6.9 6.5 6.7 6.4 6.3 7.3 7.6 7.6 7.5 7.7 8.1 8.2 7.9 8.1 8.5 8.6 8.2 7.6 7.2 7.2 7.2 7.0 6.9 6.6 6.3 6.2
7.6 7.8 7.6 7.5 7.8 7.6 7.8 7.9 7.9 7.9 7.8 7.6 7.2 7.0 6.8 6.3 7.0 7.2 7.4 7.3 7.0 6.6 6.4 6.9 7.5 8.1 8.0 7.9 7.8 7.9 8.2 8.1 8.2 8.1 7.4 7.2 7.2 7.2 7.0 7.0 6.4 6.3 6.2 5.8
7.5 7.3 7.4 7.5 7.3 7.2 7.4 7.5 7.6 7.4 7.4 7.4 7.4 7.5 7.2 6.8 6.3 6.9 7.2 7.3 7.2 7.1 7.0 7.1 7.3 7.2 7.6 8.0 7.8 8.2 8.4 8.4 7.9 7.6 7.4 7.1 7.1 7.1 6.9 6.8 6.8 6.2 5.8 5.5
7.2 7.3 7.1 7.1 7.6 7.3 7.2 7.6 7.6 7.7 7.8 7.8 7.8 7.9 8.0 7.5 7.0 7.3 7.5 7.4 7.7 7.6 7.5 7.6 7.7 7.6 7.7 8.1 8.2 8.1 8.1 8.0 7.9 7.6 7.7 7.5 7.2 6.5 6.8 6.9 6.8 6.0 5.8 6.0
Wind_Speed
3 5 12 23 8 2 3 4 6 3 5 3 7 7 12 10 5 10 11 14 11 12 18 10 11 14 9 10 15 15 17 16 13 11 11 10 12 11 10 10 17 18 19 20
4 19 22 8 8 7 7 7 10 6 8 4 7 11 11 10 9 10 14 13 12 7 8 9 8 7 9 13 17 15 17 15 15 13 13 8 9 8 9 8 9 17 18 19
18 20 18 11 8 10 12 14 13 9 6 6 3 13 7 10 5 7 9 11 9 12 12 9 8 10 9 10 14 16 18 19 18 16 9 3 4 3 5 7 9 11 18 18
15 18 16 21 17 17 18 10 6 5 4 9 7 12 7 9 10 8 9 8 11 10 8 8 9 8 10 13 13 15 16 17 16 15 12 16 12 9 10 11 9 9 15 15
21 19 26 22 21 16 16 7 9 8 10 3 11 4 11 7 10 12 10 10 10 11 12 11 10 11 13 9 12 13 13 13 14 16 15 12 12 10 3 4 8 9 9 12
19 8 14 21 19 15 5 7 5 5 4 7 20 11 19 10 10 6 6 9 10 11 10 10 10 9 9 7 9 11 14 14 14 15 14 16 16 9 7 6 8 7 7 9
21 20 21 7 19 17 9 8 5 6 3 15 16 7 23 5 7 13 12 11 11 11 7 7 8 7 8 9 10 11 14 13 14 16 15 15 14 11 12 10 9 8 7 5
16 16 19 16 16 17 22 17 7 10 11 19 6 10 19 14 20 10 9 9 9 10 8 9 9 8 8 9 11 12 14 11 11 13 14 11 10 7 8 8 7 8 8 9
10 16 3 17 19 17 13 20 25 4 2 0 5 6 10 3 8 7 9 8 9 12 13 13 9 9 8 9 12 14 12 8 9 9 7 7 8 8 8 7 6 6 6 5
9 6 18 12 19 21 20 10 15 11 12 11 6 6 9 11 18 13 12 11 10 13 16 9 9 12 11 8 5 8 7 9 7 7 6 5 7 6 6 5 7 6 5 5
6 8 4 2 15 21 18 19 14 6 15 14 17 14 7 10 8 12 13 9 8 11 12 9 10 11 10 7 8 8 8 9 7 6 6 6 5 6 6 5 5 5 4 5
21 5 13 21 14 5 10 20 22 13 14 11 16 19 4 12 14 15 13 9 8 6 8 3 5 9 11 10 8 9 8 10 11 11 10 8 7 6 6 5 5 5 5 5
4 8 11 15 8 19 13 13 9 8 12 19 13 16 14 19 11 8 6 9 7 5 1 4 5 8 10 10 9 8 8 8 9 11 10 10 7 6 6 6 6 6 6 6
8 6 11 14 18 2 17 25 18 15 11 16 19 18 20 8 19 20 21 12 10 8 6 5 2 5 9 9 10 10 9 8 9 9 10 9 8 7 7 6 7 7 6 7
10 6 7 18 24 10 12 9 6 8 7 8 10 13 19 13 10 11 12 10 9 9 7 9 11 10 8 8 9 8 9 11 12 11 9 9 7 8 7 6 6 5 6 5
6 11 2 9 15 16 16 13 6 9 10 9 13 17 21 14 7 9 13 9 10 10 9 10 11 13 14 15 14 13 13 15 14 13 11 9 9 10 8 7 6 6 6 6
7 7 4 10 7 8 6 10 15 10 11 9 11 13 21 21 12 8 11 11 18 11 10 10 12 15 16 17 16 17 16 14 15 12 11 11 10 10 10 9 9 8 7 8
11 10 7 9 9 14 7 12 14 17 17 17 17 19 21 21 16 11 14 14 16 17 10 10 11 13 14 11 9 6 7 12 13 13 13 11 11 10 11 12 10 8 8 9
17 11 6 9 12 12 8 5 7 9 18 16 15 17 17 18 9 18 15 10 15 15 14 15 12 13 14 15 16 15 12 13 13 12 12 11 12 11 12 12 12 9 10 9
17 17 11 7 12 13 16 13 15 16 19 7 11 16 21 17 10 18 4 9 12 13 9 12 10 4 9 15 14 15 15 15 16 17 13 12 12 12 11 12 11 6 8 10
3 5 16 14 14 10 17 4 6 12 11 17 17 20 22 16 15 16 5 14 11 11 12 9 8 10 14 11 15 17 15 19 17 13 12 12 12 11 12 10 11 11 11 10
11 6 6 6 8 16 12 15 21 15 13 17 14 12 13 13 18 17 10 16 20 21 18 15 8 10 8 10 14 16 17 10 10 13 13 13 13 11 10 14 10 11 11 10
9 12 9 7 5 6 17 22 14 12 15 22 14 15 15 16 20 19 17 15 16 19 19 14 9 6 6 9 13 13 9 14 16 16 14 13 12 11 12 14 13 9 8 7
6 8 8 5 18 15 14 16 12 9 13 16 12 11 11 15 18 21 15 15 14 18 16 6 8 8 5 6 8 11 14 13 14 15 14 13 13 13 10 8 8 8 6 5
4 3 7 10 17 20 19 17 18 15 8 12 19 16 17 18 25 26 20 20 19 20 8 8 10 10 9 9 12 14 15 18 16 16 14 13 11 11 10 8 6 6 5 5
4 8 7 10 16 5 20 20 19 9 14 19 20 20 18 19 23 28 22 17 18 11 10 10 12 13 12 14 14 14 14 16 17 14 12 12 12 9 8 8 7 10 7 7
Wind_Direction
202 186 210 214 208 183 154 210 257 250 252 203 241 244 272 269 229 257 258 257 245 244 258 224 211 218 197 184 198 191 185 191 177 183 184 188 200 197 203 204 202 199 203 203
244 226 222 216 196 205 232 243 254 288 266 189 279 263 258 264 257 242 256 254 240 251 264 242 230 202 188 189 190 185 194 182 190 190 197 197 193 208 206 205 206 203 203 203
211 229 222 202 196 201 223 226 241 244 326 279 325 285 246 268 227 260 259 242 237 229 241 248 234 222 201 193 191 188 190 188 192 194 179 119 115 98 186 204 205 203 199 204
224 233 239 216 216 208 230 199 216 202 203 248 150 270 216 234 255 232 261 238 237 238 244 247 250 238 212 217 196 195 192 190 187 185 183 187 192 191 210 206 204 200 202 205
223 206 217 229 222 196 240 177 190 197 242 17 262 294 257 174 254 253 242 248 240 237 231 238 237 236 245 200 192 191 186 185 181 180 189 189 200 213 170 170 185 198 201 209
244 229 215 225 233 227 206 240 224 211 203 231 241 203 263 227 215 253 227 242 247 253 249 239 245 245 242 195 174 177 175 181 178 178 183 193 203 196 181 184 192 199 201 207
242 240 241 204 225 227 212 200 227 229 202 233 231 198 243 268 228 210 215 219 242 257 265 261 244 224 216 192 174 172 174 177 179 180 188 197 203 195 195 189 195 185 196 202
218 237 222 216 216 210 216 199 182 207 214 237 155 213 237 219 240 244 224 228 245 262 256 246 236 221 205 187 172 166 171 170 177 180 192 195 197 196 201 196 195 199 201 205
205 233 239 209 223 201 231 222 219 254 219 137 212 253 284 238 224 233 252 251 257 263 258 233 216 200 190 190 179 166 155 158 173 177 174 187 192 195 199 192 192 200 191 182
257 269 223 223 217 224 227 215 220 225 229 234 250 245 231 222 240 268 265 252 256 281 273 222 196 196 189 180 168 131 142 156 157 156 166 178 182 179 172 164 186 183 170 157
270 249 275 238 211 221 220 229 242 239 218 228 241 247 204 227 227 228 247 245 257 278 269 228 201 190 175 143 162 151 151 150 152 154 159 160 160 167 162 175 178 177 149 162
222 253 239 247 255 241 225 227 225 227 229 228 232 246 281 217 239 248 248 267 286 279 282 226 174 161 159 162 166 165 162 161 170 176 175 170 161 157 153 161 165 155 170 168
338 227 246 254 279 260 245 251 247 240 239 237 234 246 238 263 271 272 253 284 277 312 109 136 146 170 171 172 172 170 174 170 171 171 171 176 157 179 169 158 162 169 168 174
113 226 260 255 253 201 238 241 236 235 237 237 237 253 252 260 242 250 265 262 251 263 217 168 219 198 189 193 184 183 181 176 178 160 162 169 160 165 183 164 169 170 169 164
158 236 247 264 255 273 268 271 276 268 253 259 268 254 257 243 240 243 250 265 267 261 232 201 190 208 209 212 194 188 187 189 176 176 172 177 158 157 152 150 148 136 137 129
230 245 248 261 238 245 246 260 272 263 262 271 265 280 282 275 263 252 251 257 252 246 235 227 219 215 202 202 207 194 191 194 177 179 176 168 170 150 147 139 132 122 116 113
264 281 252 259 225 221 244 220 237 250 272 257 264 270 276 283 297 280 274 248 252 244 236 202 203 208 215 209 198 205 195 181 181 180 171 173 167 157 149 139 132 128 124 118
252 238 237 264 252 252 242 179 194 218 223 235 239 256 264 276 277 274 281 283 279 271 249 224 205 206 210 196 188 168 175 188 189 187 180 167 160 157 145 138 133 124 124 118
206 228 252 249 248 269 260 190 182 202 243 229 246 252 264 272 297 265 262 268 269 268 268 254 222 204 198 191 190 179 175 188 187 188 186 170 159 153 150 141 140 137 129 122
202 203 214 232 255 257 262 218 223 233 258 197 224 254 266 276 265 275 283 238 258 264 243 249 246 229 186 203 178 177 187 187 194 193 182 163 155 152 151 141 132 122 131 130
174 202 220 228 241 247 243 170 163 197 237 229 227 237 250 253 247 267 306 286 277 247 256 235 226 216 211 189 178 189 186 196 193 168 155 150 147 139 134 121 125 122 121 118
222 187 208 229 247 264 240 232 210 219 231 247 229 239 246 258 273 278 270 267 273 267 256 249 216 223 199 179 183 188 192 163 143 140 134 127 129 133 131 126 123 123 125 119
241 209 229 196 230 262 257 260 250 212 221 250 235 243 248 254 267 271 270 263 261 265 261 250 219 184 174 178 184 184 165 145 141 134 135 130 130 129 132 133 130 123 123 124
231 228 233 246 252 243 245 254 269 219 216 236 247 231 234 254 263 268 265 268 270 265 252 205 162 172 161 144 121 135 137 134 131 127 128 129 126 120 115 111 113 117 115 110
231 145 245 254 261 251 261 260 257 254 253 268 270 260 256 260 267 268 272 277 271 263 217 181 168 156 142 126 125 137 140 134 132 129 129 126 122 115 113 107 110 110 95 122
182 223 217 242 257 240 258 258 262 243 231 239 248 259 257 257 264 269 273 273 274 217 167 160 146 137 138 130 133 135 134 132 130 127 129 134 125 122 121 119 107 68 119 142